N80991 KIAD-KTEB

Flight info

Callsign N80991
Flight time 0h 42m
Altitude 29000
Route WOOLY2 SWANN JAIKE4
Aircraft A319/M-SDE3FGHIRWY/LB1

Departure

Time 2026-05-05 19:51
Airport Washington Dulles International Airport (KIAD)

Arrival

Time 2026-05-05 20:33
Airport Teterboro Airport (KTEB)
Time Latitude Longitude Altitude Speed Heading
2026-05-05 19:42 38.95720 -77.43945 295 ft 0 kts 296°
2026-05-05 19:43 38.95707 -77.43912 293 ft 0 kts 296°
2026-05-05 19:49 38.95706 -77.43914 291 ft 0 kts 279°
2026-05-05 19:49 38.95704 -77.43917 294 ft 0 kts 247°
2026-05-05 19:49 38.95695 -77.43918 295 ft 7 kts 199°
2026-05-05 19:49 38.95579 -77.43958 295 ft 22 kts 175°
2026-05-05 19:50 38.95486 -77.43813 289 ft 29 kts 90°
2026-05-05 19:50 38.95485 -77.43725 288 ft 1 kts 91°
2026-05-05 19:50 38.95484 -77.43687 288 ft 7 kts 92°
2026-05-05 19:50 38.95434 -77.43602 289 ft 22 kts 165°
2026-05-05 19:51 38.95081 -77.43604 288 ft 99 kts 181°
2026-05-05 19:51 38.94179 -77.43610 747 ft 142 kts 183°
2026-05-05 19:51 38.93196 -77.43560 1739 ft 149 kts 182°
2026-05-05 19:51 38.92128 -77.43468 2613 ft 163 kts 180°
2026-05-05 19:52 38.90867 -77.43387 2905 ft 206 kts 180°
2026-05-05 19:52 38.89271 -77.43301 2991 ft 241 kts 181°
2026-05-05 19:52 38.87585 -77.43194 2998 ft 243 kts 180°
2026-05-05 19:52 38.85890 -77.43055 3154 ft 248 kts 176°
2026-05-05 19:53 38.84243 -77.42241 4307 ft 261 kts 150°
2026-05-05 19:53 38.83010 -77.40477 5605 ft 277 kts 123°
2026-05-05 19:53 38.82616 -77.37996 6835 ft 298 kts 89°
2026-05-05 19:53 38.83119 -77.35358 7987 ft 310 kts 74°
2026-05-05 19:54 38.83860 -77.32719 9153 ft 319 kts 70°
2026-05-05 19:54 38.84689 -77.30032 10212 ft 330 kts 68°
2026-05-05 19:54 38.85576 -77.27199 10812 ft 355 kts 68°
2026-05-05 19:54 38.86510 -77.24156 11313 ft 380 kts 69°
2026-05-05 19:55 38.87487 -77.20894 11737 ft 404 kts 69°
2026-05-05 19:55 38.88506 -77.17427 12017 ft 428 kts 69°
2026-05-05 19:55 38.89565 -77.13783 12404 ft 445 kts 69°
2026-05-05 19:55 38.90628 -77.10081 13114 ft 451 kts 69°
2026-05-05 19:56 38.91714 -77.06272 13864 ft 456 kts 69°
2026-05-05 19:56 38.92803 -77.02427 14561 ft 460 kts 69°
2026-05-05 19:56 38.93897 -76.98556 15273 ft 463 kts 69°
2026-05-05 19:56 38.95004 -76.94657 15945 ft 466 kts 69°
2026-05-05 19:57 38.96123 -76.90731 16619 ft 469 kts 69°
2026-05-05 19:57 38.97249 -76.86785 17282 ft 472 kts 70°
2026-05-05 19:57 38.98372 -76.82825 17908 ft 475 kts 69°
2026-05-05 19:57 38.99503 -76.78827 18491 ft 478 kts 69°
2026-05-05 19:58 39.00644 -76.74796 19018 ft 481 kts 69°
2026-05-05 19:58 39.01788 -76.70745 19540 ft 483 kts 69°
2026-05-05 19:58 39.02935 -76.66669 20041 ft 486 kts 69°
2026-05-05 19:58 39.04086 -76.62572 20527 ft 488 kts 70°
2026-05-05 19:59 39.05245 -76.58438 20933 ft 492 kts 70°
2026-05-05 19:59 39.06408 -76.54291 21335 ft 494 kts 69°
2026-05-05 19:59 39.07578 -76.50123 21726 ft 497 kts 69°
2026-05-05 19:59 39.08748 -76.45938 22150 ft 498 kts 69°
2026-05-05 20:00 39.09920 -76.41733 22551 ft 499 kts 69°
2026-05-05 20:00 39.11093 -76.37518 22943 ft 501 kts 69°
2026-05-05 20:00 39.12252 -76.33336 23307 ft 503 kts 69°
2026-05-05 20:00 39.13471 -76.29044 23626 ft 505 kts 66°
2026-05-05 20:01 39.15009 -76.25037 23894 ft 506 kts 58°
2026-05-05 20:01 39.17021 -76.21259 24193 ft 505 kts 49°
2026-05-05 20:01 39.19362 -76.17972 24483 ft 504 kts 41°
2026-05-05 20:01 39.21960 -76.14934 24790 ft 504 kts 39°
2026-05-05 20:02 39.24555 -76.11897 25207 ft 503 kts 39°
2026-05-05 20:02 39.27189 -76.08865 25717 ft 498 kts 36°
2026-05-05 20:02 39.29913 -76.06235 26206 ft 494 kts 32°
2026-05-05 20:02 39.32687 -76.03629 26718 ft 492 kts 32°
2026-05-05 20:03 39.35450 -76.01043 27258 ft 490 kts 32°
2026-05-05 20:03 39.38197 -75.98470 27807 ft 487 kts 32°
2026-05-05 20:03 39.40937 -75.95900 28394 ft 485 kts 32°
2026-05-05 20:03 39.43673 -75.93328 28804 ft 486 kts 32°
2026-05-05 20:04 39.46405 -75.90753 28901 ft 485 kts 32°
2026-05-05 20:04 39.51850 -75.85603 28909 ft 485 kts 32°
2026-05-05 20:05 39.57260 -75.80466 27881 ft 474 kts 32°
2026-05-05 20:05 39.59931 -75.77943 25821 ft 477 kts 32°
2026-05-05 20:05 39.62647 -75.75432 23835 ft 481 kts 32°
2026-05-05 20:05 39.65368 -75.72946 21929 ft 475 kts 32°
2026-05-05 20:06 39.68053 -75.70498 20187 ft 467 kts 32°
2026-05-05 20:06 39.70690 -75.68095 18593 ft 458 kts 32°
2026-05-05 20:06 39.73229 -75.65767 16912 ft 449 kts 32°
2026-05-05 20:06 39.75789 -75.63411 15222 ft 441 kts 32°
2026-05-05 20:07 39.78268 -75.61135 14140 ft 442 kts 32°
2026-05-05 20:07 39.80783 -75.58829 13591 ft 444 kts 32°
2026-05-05 20:07 39.83294 -75.56523 13091 ft 440 kts 32°
2026-05-05 20:07 39.85799 -75.54216 12992 ft 440 kts 32°
2026-05-05 20:08 39.88296 -75.51903 13024 ft 441 kts 32°
2026-05-05 20:08 39.90798 -75.49584 13020 ft 441 kts 32°
2026-05-05 20:08 39.93294 -75.47266 13021 ft 441 kts 32°
2026-05-05 20:08 39.95792 -75.44940 13020 ft 441 kts 32°
2026-05-05 20:09 39.98291 -75.42618 13026 ft 441 kts 32°
2026-05-05 20:09 40.00792 -75.40299 13018 ft 441 kts 31°
2026-05-05 20:09 40.03297 -75.37972 13019 ft 442 kts 32°
2026-05-05 20:09 40.05734 -75.35702 13013 ft 416 kts 31°
2026-05-05 20:10 40.08005 -75.33571 13010 ft 388 kts 31°
2026-05-05 20:10 40.10128 -75.31577 13009 ft 364 kts 31°
2026-05-05 20:10 40.12123 -75.29711 13011 ft 344 kts 30°
2026-05-05 20:10 40.14047 -75.27920 13011 ft 337 kts 30°
2026-05-05 20:11 40.15956 -75.26149 12781 ft 338 kts 30°
2026-05-05 20:11 40.17868 -75.24381 12370 ft 335 kts 30°
2026-05-05 20:11 40.19761 -75.22625 12018 ft 332 kts 30°
2026-05-05 20:11 40.21613 -75.20902 11658 ft 330 kts 30°
2026-05-05 20:12 40.23504 -75.19139 11273 ft 329 kts 30°
2026-05-05 20:12 40.25363 -75.17402 10915 ft 328 kts 30°
2026-05-05 20:12 40.27191 -75.15692 10472 ft 328 kts 31°
2026-05-05 20:12 40.29046 -75.13954 10036 ft 328 kts 31°
2026-05-05 20:13 40.30900 -75.12213 9584 ft 327 kts 31°
2026-05-05 20:13 40.32672 -75.10332 9132 ft 329 kts 42°
2026-05-05 20:13 40.34237 -75.08144 8690 ft 328 kts 45°
2026-05-05 20:13 40.35789 -75.05960 8259 ft 326 kts 45°
2026-05-05 20:14 40.37331 -75.03792 7841 ft 324 kts 45°
2026-05-05 20:14 40.38862 -75.01640 7436 ft 322 kts 45°
2026-05-05 20:14 40.40380 -74.99502 7087 ft 318 kts 46°
2026-05-05 20:14 40.41879 -74.97393 6889 ft 314 kts 46°
2026-05-05 20:15 40.43368 -74.95299 6806 ft 313 kts 46°
2026-05-05 20:15 40.44854 -74.93209 6711 ft 313 kts 46°
2026-05-05 20:15 40.46339 -74.91116 6622 ft 313 kts 46°
2026-05-05 20:15 40.47815 -74.89029 6538 ft 312 kts 47°
2026-05-05 20:16 40.49286 -74.86947 6432 ft 311 kts 46°
2026-05-05 20:16 40.50759 -74.84866 6339 ft 310 kts 46°
2026-05-05 20:16 40.52225 -74.82796 6248 ft 310 kts 47°
2026-05-05 20:16 40.53692 -74.80721 6159 ft 310 kts 47°
2026-05-05 20:17 40.55157 -74.78647 6073 ft 310 kts 47°
2026-05-05 20:17 40.56619 -74.76579 5978 ft 308 kts 47°
2026-05-05 20:17 40.58099 -74.74564 5892 ft 306 kts 41°
2026-05-05 20:17 40.59825 -74.72941 5807 ft 305 kts 30°
2026-05-05 20:18 40.61634 -74.71474 5721 ft 305 kts 30°
2026-05-05 20:18 40.63414 -74.70026 5633 ft 304 kts 30°
2026-05-05 20:18 40.65208 -74.68560 5545 ft 304 kts 30°
2026-05-05 20:18 40.67002 -74.67093 5460 ft 303 kts 30°
2026-05-05 20:19 40.68791 -74.65629 5374 ft 303 kts 30°
2026-05-05 20:19 40.70582 -74.64163 5294 ft 302 kts 30°
2026-05-05 20:19 40.72363 -74.62705 5206 ft 301 kts 30°
2026-05-05 20:19 40.74141 -74.61249 5137 ft 300 kts 30°
2026-05-05 20:20 40.75920 -74.59792 5039 ft 301 kts 30°
2026-05-05 20:20 40.77699 -74.58335 4949 ft 301 kts 30°
2026-05-05 20:20 40.79475 -74.56880 4883 ft 300 kts 30°
2026-05-05 20:20 40.81246 -74.55427 4800 ft 300 kts 30°
2026-05-05 20:21 40.83015 -74.53972 4711 ft 300 kts 30°
2026-05-05 20:21 40.84786 -74.52515 4620 ft 299 kts 30°
2026-05-05 20:21 40.86559 -74.51085 4541 ft 298 kts 26°
2026-05-05 20:21 40.88439 -74.49938 4456 ft 298 kts 21°
2026-05-05 20:22 40.90331 -74.48813 4379 ft 298 kts 22°
2026-05-05 20:22 40.92224 -74.47676 4301 ft 298 kts 22°
2026-05-05 20:22 40.94087 -74.46553 4236 ft 298 kts 22°
2026-05-05 20:22 40.95981 -74.45410 4127 ft 299 kts 21°
2026-05-05 20:23 40.97873 -74.44267 4038 ft 300 kts 21°
2026-05-05 20:23 40.99774 -74.43120 3955 ft 301 kts 21°
2026-05-05 20:23 41.01580 -74.41736 3866 ft 302 kts 37°
2026-05-05 20:23 41.02972 -74.39675 3783 ft 301 kts 59°
2026-05-05 20:24 41.03792 -74.37150 3692 ft 298 kts 79°
2026-05-05 20:24 41.04086 -74.34458 3601 ft 294 kts 87°
2026-05-05 20:24 41.04325 -74.31802 3519 ft 288 kts 87°
2026-05-05 20:24 41.04569 -74.29168 3437 ft 288 kts 87°
2026-05-05 20:25 41.04811 -74.26533 3352 ft 289 kts 87°
2026-05-05 20:25 41.05051 -74.23896 3267 ft 287 kts 87°
2026-05-05 20:25 41.05293 -74.21296 3169 ft 279 kts 87°
2026-05-05 20:25 41.05515 -74.18849 3028 ft 252 kts 91°
2026-05-05 20:26 41.05404 -74.16707 2874 ft 215 kts 109°
2026-05-05 20:26 41.04960 -74.14935 2979 ft 195 kts 122°
2026-05-05 20:26 41.04302 -74.13454 2847 ft 175 kts 135°
2026-05-05 20:26 41.03546 -74.12328 2718 ft 147 kts 147°
2026-05-05 20:27 41.02831 -74.11555 2618 ft 124 kts 155°
2026-05-05 20:27 41.02159 -74.10891 2532 ft 119 kts 155°
2026-05-05 20:27 41.01494 -74.10240 2446 ft 119 kts 156°
2026-05-05 20:27 41.00828 -74.09588 2365 ft 119 kts 157°
2026-05-05 20:28 41.00163 -74.08937 2285 ft 119 kts 157°
2026-05-05 20:28 40.99512 -74.08297 2196 ft 118 kts 157°
2026-05-05 20:28 40.98852 -74.07647 2112 ft 118 kts 157°
2026-05-05 20:28 40.98184 -74.07028 2018 ft 115 kts 163°
2026-05-05 20:29 40.97472 -74.06619 1947 ft 109 kts 174°
2026-05-05 20:29 40.96742 -74.06399 1858 ft 109 kts 178°
2026-05-05 20:29 40.95998 -74.06195 1788 ft 109 kts 178°
2026-05-05 20:29 40.95259 -74.05991 1724 ft 108 kts 178°
2026-05-05 20:30 40.94522 -74.05786 1648 ft 108 kts 178°
2026-05-05 20:30 40.94025 -74.05648 1597 ft 108 kts 177°
2026-05-05 20:30 40.93289 -74.05446 1526 ft 107 kts 178°
2026-05-05 20:30 40.92553 -74.05402 1426 ft 108 kts 191°
2026-05-05 20:31 40.91802 -74.05461 1288 ft 108 kts 191°
2026-05-05 20:31 40.91042 -74.05517 1136 ft 110 kts 189°
2026-05-05 20:31 40.90282 -74.05571 984 ft 108 kts 192°
2026-05-05 20:31 40.89515 -74.05627 829 ft 109 kts 189°
2026-05-05 20:32 40.88747 -74.05681 698 ft 109 kts 190°
2026-05-05 20:32 40.88000 -74.05732 549 ft 107 kts 196°
2026-05-05 20:32 40.87236 -74.05797 447 ft 111 kts 190°
2026-05-05 20:32 40.86479 -74.05839 271 ft 107 kts 190°
2026-05-05 20:33 40.85737 -74.05892 81 ft 106 kts 195°
2026-05-05 20:33 40.85036 -74.05957 11 ft 89 kts 183°
2026-05-05 20:33 40.84567 -74.05989 15 ft 58 kts 183°
2026-05-05 20:33 40.84264 -74.06103 15 ft 36 kts 225°
2026-05-05 20:34 40.84248 -74.06428 11 ft 26 kts 273°
2026-05-05 20:34 40.84228 -74.06517 12 ft 1 kts 180°
2026-05-05 20:34 40.84226 -74.06506 13 ft 1 kts 115°
2026-05-05 20:34 40.84225 -74.06506 13 ft 2 kts 121°
2026-05-05 20:35 40.84213 -74.06508 12 ft 5 kts 205°
2026-05-05 20:35 40.84194 -74.06542 12 ft 0 kts 302°
2026-05-05 20:35 40.84196 -74.06545 12 ft 0 kts 302°